Stations météo

réclame
Mon MeteoGroup
Socoa, France (7600): Température de l'air & dewpoint: 14.11.2017 12:00:00 - 20.11.2017 12:00:00 (CET)Socoa, France (7600): Vitesse du vent & gusts: 14.11.2017 12:00:00 - 20.11.2017 12:00:00 (CET)Socoa, France (7600): Direction du vent: 14.11.2017 12:00:00 - 20.11.2017 12:00:00 (CET)Socoa, France (7600): reduced air pressure: 14.11.2017 12:00:00 - 20.11.2017 12:00:00 (CET)Socoa, France (7600): visibility: 14.11.2017 12:00:00 - 20.11.2017 12:00:00 (CET)Socoa, France (7600): Quantités de précipitations: 14.11.2017 12:00:00 - 20.11.2017 12:00:00 (CET)
Date & Time tt [°C] td [°C] ff [km/h] ff [knt] fx [km/h] fx [knt] dd ppp [hPa] vv [km] rr [mm]
20.11.2017 12:00:00 12,2 6,9 2 1 9 5 E 1024,1 - 0,0
20.11.2017 11:00:00 9,5 6,0 6 3 10 5 E 1024,6 - 0,0
20.11.2017 10:00:00 7,2 6,6 3 2 10 6 ESE 1024,6 - 0,0
20.11.2017 09:00:00 3,8 3,5 6 3 10 5 SSE 1024,7 - 0,0
20.11.2017 08:00:00 2,9 2,5 8 5 14 8 SE 1024,9 - 0,0
20.11.2017 07:00:00 2,7 2,3 11 6 14 8 SE 1024,8 18 0,0
20.11.2017 06:00:00 3,4 3,1 6 3 13 7 S 1024,5 - 0,0
20.11.2017 05:00:00 3,6 3,2 5 3 15 8 SE 1024,3 - 0,0
20.11.2017 04:00:00 3,7 3,3 12 6 14 8 S 1024,8 15 0,0
20.11.2017 03:00:00 3,5 2,9 5 3 9 5 SSE 1025,5 - 0,0
20.11.2017 02:00:00 4,0 3,4 8 5 18 10 S 1025,8 - 0,2
20.11.2017 01:00:00 4,6 4,0 13 7 16 8 S 1026,3 12 0,0
20.11.2017 00:00:00 4,3 3,6 8 4 15 8 SE 1026,7 - 0,0
19.11.2017 23:00:00 5,9 5,3 8 5 16 8 ENE 1026,6 - 0,0
19.11.2017 22:00:00 5,8 4,9 6 3 15 8 SE 1026,3 12 0,0
19.11.2017 21:00:00 7,0 5,8 11 6 18 10 ESE 1026,3 - 0,0
19.11.2017 20:00:00 7,0 5,3 11 6 17 9 SE 1026,0 - 0,0
19.11.2017 19:00:00 8,7 6,0 9 5 17 9 E 1026,1 20 0,0
19.11.2017 18:00:00 10,0 5,4 10 6 18 10 E 1025,8 - 0,0
19.11.2017 17:00:00 11,9 5,5 15 8 21 12 NE 1025,4 - 0,0
19.11.2017 16:00:00 12,5 6,3 13 7 19 11 NNE 1025,2 20 0,0
19.11.2017 15:00:00 11,7 6,6 7 4 16 8 NNE 1025,6 - 0,0
19.11.2017 14:00:00 12,2 6,5 11 6 19 10 N 1026,1 - 0,0
19.11.2017 13:00:00 12,0 6,3 9 5 13 7 N 1026,4 20 0,0
19.11.2017 12:00:00 12,0 6,1 2 1 6 4 NE 1026,9 - 0,0
19.11.2017 11:00:00 10,5 7,4 2 1 15 8 NNE 1026,9 - 0,0
19.11.2017 10:00:00 6,8 5,9 12 6 14 8 S 1026,6 15 0,0
19.11.2017 09:00:00 4,4 4,0 14 8 17 9 S 1026,5 - 0,0
19.11.2017 08:00:00 2,9 2,5 11 6 15 8 S 1026,1 - 0,0
19.11.2017 07:00:00 2,8 2,2 11 6 15 8 S 1025,6 15 0,0
19.11.2017 06:00:00 3,1 2,5 12 6 15 8 S 1025,4 - 0,0
19.11.2017 05:00:00 3,3 2,7 11 6 13 7 S 1025,4 - 0,0
19.11.2017 04:00:00 4,0 3,4 13 7 18 10 S 1025,7 15 0,0
19.11.2017 03:00:00 4,1 3,5 13 7 16 8 S 1025,6 - 0,2
19.11.2017 02:00:00 3,8 3,1 5 3 12 6 S 1025,5 - 0,0
19.11.2017 01:00:00 4,4 3,7 6 4 10 6 S 1025,7 12 0,0
19.11.2017 00:00:00 5,2 4,2 9 5 12 6 S 1025,8 - 0,0
18.11.2017 23:00:00 5,5 4,6 8 4 12 6 S 1026,0 - 0,0
18.11.2017 22:00:00 6,4 5,5 10 5 13 7 S 1025,9 12 0,0
18.11.2017 21:00:00 7,0 5,8 10 5 12 6 S 1025,8 - 0,0
18.11.2017 20:00:00 7,6 6,2 6 3 18 10 SSE 1025,6 - 0,0
18.11.2017 19:00:00 8,5 6,8 5 3 12 6 SSE 1025,4 15 0,0
18.11.2017 18:00:00 10,0 6,7 4 2 12 6 SSW 1025,3 - 0,0
18.11.2017 17:00:00 12,8 6,4 5 3 9 5 NNW 1025,0 - 0,0
18.11.2017 16:00:00 13,7 7,0 6 3 12 7 NNW 1024,8 15 0,0
18.11.2017 15:00:00 12,6 8,3 8 4 15 8 NNW 1024,9 - 0,0
18.11.2017 14:00:00 14,2 9,0 5 3 15 8 N 1025,0 - 0,0
18.11.2017 13:00:00 13,5 9,7 8 5 17 9 NNE 1025,4 15 0,0
18.11.2017 12:00:00 12,5 9,5 12 6 16 9 N 1025,8 - 0,0
18.11.2017 11:00:00 11,6 10,3 6 3 10 6 NNE 1025,8 - 0,0
18.11.2017 10:00:00 10,9 10,1 3 2 8 5 SW 1025,3 - 0,0
18.11.2017 09:00:00 8,8 8,3 7 4 9 5 SW 1025,0 - 0,0
18.11.2017 08:00:00 8,7 8,1 4 2 15 8 SSE 1024,5 - 0,0
18.11.2017 07:00:00 8,8 8,2 12 7 14 8 SSW 1024,2 20 0,0
18.11.2017 06:00:00 8,7 8,2 9 5 21 11 SSE 1024,1 - 0,0
18.11.2017 05:00:00 8,8 8,3 18 10 23 12 SSW 1024,2 - 0,0
18.11.2017 04:00:00 8,2 7,8 18 10 22 12 SSW 1024,3 20 0,0
18.11.2017 03:00:00 8,2 7,8 18 10 22 12 SSW 1024,2 - 0,0
18.11.2017 02:00:00 8,1 7,7 16 9 19 11 SSW 1024,4 - 0,2
18.11.2017 01:00:00 7,4 7,0 15 8 17 9 SSW 1024,6 - 0,0
18.11.2017 00:00:00 7,8 7,2 13 7 14 8 SW 1024,6 - 0,0
17.11.2017 23:00:00 8,6 8,0 10 5 15 8 SSW 1024,7 - 0,0
17.11.2017 22:00:00 8,5 7,6 9 5 14 7 S 1024,4 20 0,0
17.11.2017 21:00:00 9,6 8,7 13 7 16 9 S 1024,3 - 0,0
17.11.2017 20:00:00 10,3 9,1 8 4 10 5 S 1024,5 - 0,0
17.11.2017 19:00:00 11,4 9,3 5 3 14 8 SSW 1024,3 20 0,0
17.11.2017 18:00:00 13,8 9,8 12 6 18 10 NW 1023,8 - 0,0
17.11.2017 17:00:00 14,5 9,9 11 6 19 10 NW 1023,4 - 0,0
17.11.2017 16:00:00 15,4 11,0 13 7 21 12 W 1023,4 20 0,0
17.11.2017 15:00:00 15,1 10,7 13 7 18 10 W 1023,5 - 0,0
17.11.2017 14:00:00 16,7 10,5 9 5 15 8 W 1023,8 - 0,0
17.11.2017 13:00:00 16,5 9,7 8 4 12 6 WNW 1024,2 - 0,0
17.11.2017 12:00:00 15,3 9,6 5 3 7 4 WNW 1024,6 - 0,0
17.11.2017 11:00:00 13,4 7,6 8 4 15 8 S 1024,9 - 0,0
17.11.2017 10:00:00 9,3 6,7 8 5 16 9 S 1025,0 15 0,0
17.11.2017 09:00:00 7,4 5,2 15 8 18 10 S 1024,7 - 0,0
17.11.2017 08:00:00 6,5 5,0 16 9 18 10 S 1024,3 - 0,0
17.11.2017 07:00:00 5,9 4,4 13 7 20 11 S 1024,1 20 0,0
17.11.2017 06:00:00 5,4 4,0 16 9 19 10 S 1024,0 - 0,0
17.11.2017 05:00:00 5,1 4,1 18 10 21 11 S 1024,2 - 0,0
17.11.2017 04:00:00 5,0 4,3 9 5 14 8 S 1024,1 - 0,0
17.11.2017 03:00:00 5,2 4,5 10 5 14 8 S 1024,2 - 0,0
17.11.2017 02:00:00 5,5 4,8 8 5 13 7 S 1024,0 - 0,0
17.11.2017 01:00:00 5,9 5,2 9 5 13 7 S 1024,5 - 0,0
17.11.2017 00:00:00 6,3 5,4 10 5 13 7 S 1024,3 - 0,0
16.11.2017 23:00:00 6,6 5,7 6 3 13 7 SSW 1024,2 - 0,0
16.11.2017 22:00:00 7,0 6,1 11 6 14 7 S 1023,9 20 0,0
16.11.2017 21:00:00 7,4 6,5 9 5 12 7 S 1023,9 - 0,0
16.11.2017 20:00:00 8,2 6,8 9 5 13 7 S 1023,7 - 0,0
16.11.2017 19:00:00 9,1 7,2 10 5 12 6 S 1023,8 20 0,0
16.11.2017 18:00:00 10,6 7,3 3 2 5 3 SSE 1023,2 - 0,0
16.11.2017 17:00:00 13,4 6,3 3 2 10 5 ENE 1022,9 - 0,0
16.11.2017 16:00:00 14,5 6,8 8 4 15 8 NW 1022,8 20 0,0
16.11.2017 15:00:00 13,3 7,1 8 4 13 7 NNW 1022,4 - 0,0
16.11.2017 14:00:00 14,3 5,4 5 3 11 6 NNW 1022,4 - 0,0
16.11.2017 13:00:00 14,2 5,5 6 3 9 5 NNW 1022,7 - 0,0
16.11.2017 12:00:00 13,8 6,2 3 2 6 4 NNW 1023,1 - 0,0
16.11.2017 11:00:00 11,8 6,5 3 1 13 7 W 1023,1 - 0,0
16.11.2017 10:00:00 7,0 4,6 10 5 14 7 S 1022,8 - 0,0
16.11.2017 09:00:00 4,5 3,5 9 5 17 9 S 1022,5 - 0,0
16.11.2017 08:00:00 3,5 2,6 15 8 17 9 S 1022,0 - 0,0
16.11.2017 07:00:00 3,8 2,8 8 4 15 8 SSE 1021,4 20 0,0
16.11.2017 06:00:00 3,5 2,8 8 4 11 6 SSE 1021,0 - 0,0
16.11.2017 05:00:00 3,2 2,5 5 3 16 9 SSE 1021,1 - 0,0
16.11.2017 04:00:00 3,6 2,9 11 6 13 7 S 1021,1 12 0,0
16.11.2017 03:00:00 4,1 3,4 9 5 14 7 S 1021,2 - 0,0
16.11.2017 02:00:00 3,7 3,0 11 6 14 7 S 1021,4 - 0,0
16.11.2017 01:00:00 4,3 3,6 8 5 11 6 S 1022,0 - 0,0
16.11.2017 00:00:00 4,1 3,2 8 4 15 8 S 1022,1 - 0,0
15.11.2017 23:00:00 4,6 3,7 7 4 12 7 S 1022,0 - 0,0
15.11.2017 22:00:00 5,1 4,2 7 4 11 6 SSE 1022,1 - 0,0
15.11.2017 21:00:00 5,7 4,3 5 3 16 9 SE 1022,1 - 0,0
15.11.2017 20:00:00 6,6 4,4 11 6 14 8 ESE 1022,0 - 0,0
15.11.2017 19:00:00 8,6 4,8 10 5 24 13 ESE 1021,7 20 0,0
15.11.2017 18:00:00 9,7 4,7 14 7 19 10 E 1021,3 - 0,0
15.11.2017 17:00:00 12,2 4,9 10 5 18 10 ENE 1020,9 - 0,0
15.11.2017 16:00:00 12,4 5,3 9 5 14 7 NNE 1021,1 20 0,0
15.11.2017 15:00:00 11,2 4,4 6 3 15 8 NNE 1021,2 - 0,0
15.11.2017 14:00:00 11,8 4,0 8 5 19 10 NNE 1021,8 - 0,0
15.11.2017 13:00:00 11,5 4,2 10 6 16 9 NNE 1022,5 20 0,0
15.11.2017 12:00:00 11,6 4,6 5 3 10 5 ESE 1023,2 - 0,0
15.11.2017 11:00:00 9,7 5,1 5 3 9 5 E 1023,8 - 0,0
15.11.2017 10:00:00 6,1 4,1 4 2 9 5 S 1024,1 15 0,0
15.11.2017 09:00:00 3,3 2,7 6 4 14 7 S 1024,2 - 0,0
15.11.2017 08:00:00 2,1 1,4 8 5 14 7 S 1024,1 - 0,0
15.11.2017 07:00:00 2,3 1,7 10 5 13 7 S 1024,1 - 0,0
15.11.2017 06:00:00 2,6 1,9 8 4 11 6 S 1024,1 - 0,0
15.11.2017 05:00:00 2,3 1,6 5 3 14 7 SE 1024,2 - 0,0
15.11.2017 04:00:00 2,3 1,6 10 5 12 6 S 1024,6 20 0,0
15.11.2017 03:00:00 2,5 1,6 6 3 9 5 SE 1024,9 - 0,0
15.11.2017 02:00:00 3,2 2,2 6 4 12 6 S 1025,0 - 0,0
15.11.2017 01:00:00 3,6 2,3 9 5 15 8 ESE 1025,4 12 0,0
15.11.2017 00:00:00 4,4 2,4 9 5 21 11 ESE 1026,0 - 0,0
14.11.2017 23:00:00 5,6 3,4 15 8 22 12 ESE 1026,4 - 0,0
14.11.2017 22:00:00 6,7 3,3 18 10 24 13 ESE 1026,4 - 0,0
14.11.2017 21:00:00 5,3 3,1 9 5 18 10 ESE 1026,6 - 0,0
14.11.2017 20:00:00 6,1 3,4 8 5 14 8 ESE 1026,7 - 0,0
14.11.2017 19:00:00 7,6 2,5 8 4 20 11 SE 1026,4 20 0,0
14.11.2017 18:00:00 9,6 2,4 15 8 22 12 E 1026,1 - 0,0
14.11.2017 17:00:00 11,1 1,9 14 8 25 13 ENE 1025,9 - 0,0
14.11.2017 16:00:00 11,9 2,1 15 8 29 16 ENE 1026,1 - 0,0
14.11.2017 15:00:00 11,2 2,5 16 9 23 13 NNE 1026,3 - 0,0
14.11.2017 14:00:00 - - - - - - - - - -
14.11.2017 13:00:00 - - - - - - - - - -
14.11.2017 12:00:00 - - - - - - - - - -

tt = Température de l'air
td = dewpoint
ff = Vitesse du vent
fx = gusts
dd = Direction du vent
ppp = reduced air pressure
vv = visibility
rr = Quantités de précipitations

stations d'obs. à proximité